Regional Weather Roundup
Issued by NWS

Home | Current Version | Previous Version | Text Only | Print | Product List | Glossary Off
Versions: 1 2 3 4 5 6 7 8 9 10 11 12 13 14 15 16 17 18 19 20 21 22 23 24 25 26 27

000
ASUS45 KBOU 230507
RWRCO

WEATHER ROUNDUP FOR COLORADO
NATIONAL WEATHER SERVICE DENVER/BOULDER CO
1100 PM MDT FRI SEP 22 2017

NOTE: "FAIR" INDICATES FEW OR NO CLOUDS BELOW 12000 FEET WITH NO
SIGNIFICANT WEATHER AND/OR OBSTRUCTIONS TO VISIBILITY.

COZ001>005-013-030-031-230600-
...NORTHWEST COLORADO...

CITY           SKY/WX    TMP DP  RH WIND       PRES   REMARKS
CRAIG          LGT RAIN  51  40  65 N17       29.94R
HAYDEN         MOCLDY    51  40  65 SW16      29.95R
MEEKER         LGT RAIN  55  36  48 N9        29.91R
RABBIT EARS PA TSTM      37  32  81 W6        30.13R
STEAMBOAT SPGS CLOUDY    49  39  68 E6        29.96R
WALDEN         FAIR      43  34  70 E9        30.00F
$$

COZ006>008-011-230600-
...WEST CENTRAL VALLEYS...

CITY           SKY/WX    TMP DP  RH WIND       PRES   REMARKS
GRAND JUNCTION FAIR      69  31  24 S16G25    29.77S
MONTROSE       MOCLDY    57  41  55 S8        29.88R
EAGLE          FAIR      48  38  68 E6        29.94F
RIFLE          MOCLDY    64  36  35 SW8       29.84S
DELTA          NOT AVBL
NUCLA          FAIR      55  28  35 E7        29.90S
$$

COZ017>023-064>068-230600-
...SOUTHWEST COLORADO...

CITY           SKY/WX    TMP DP  RH WIND       PRES   REMARKS
DURANGO        CLOUDY    55  30  38 CALM      29.96R
CORTEZ         FAIR      56  32  40 S8        29.90R
PAGOSA SPRINGS TSTM      53  42  65 NE6       30.03F
TELLURIDE      FAIR      55  26  32 SE5       30.07S
WOLF CREEK PAS SNOW      32  32 100 S9G20     30.28F VSB 1/2 WCI  24
$$

COZ009-010-012-014-032>034-037-058>063-230600-
...CENTRAL COLORADO...

CITY           SKY/WX    TMP DP  RH WIND       PRES   REMARKS
ASPEN          FAIR      44  37  76 SW8       29.97S
BUENA VISTA    MOCLDY    55  38  51 SE18G25   30.03S
COPPER MTN     FAIR      45  23  42 SE22G36   30.21S
BERTHOUD PASS  FAIR      36  28  75 SE33G44   30.25S
COTTONWOOD PAS MOCLDY    54  37  54 E3        30.13R
GUNNISON       FAIR      45  35  68 N10       29.99R
KREMMLING      FAIR      46  37  71 W3        29.98F
LEADVILLE      FAIR      47  29  49 S9        30.09S
MONARCH PASS   CLOUDY    37  32  81 S22       30.34F
SALIDA         MOCLDY    60  39  45 S16G28    30.09S
SUNLIGHT       FAIR      34  32  93 SW13G18   30.13F WCI  25
WILKERSON PASS CLOUDY    43  32  65 SW13G23   30.25R
$$

COZ069>075-230600-
...SAN LUIS VALLEY/SANGRE DE CRISTO MOUNTAINS...

CITY           SKY/WX    TMP DP  RH WIND       PRES   REMARKS
ALAMOSA        CLOUDY    50  47  89 N3        30.06S
DEL NORTE      CLOUDY    50  41  71 W10G18    30.10R
LA VETA PASS   FAIR      45  36  70 S18G32    30.29S
SAGUACHE       CLOUDY    52  43  71 SE13      30.08R
$$

COZ035-036-038>040-230600-
...NORTHERN COLORADO FRONT RANGE...

CITY           SKY/WX    TMP DP  RH WIND       PRES   REMARKS
DENVER INTL AP CLOUDY    58  37  45 N13       29.96R
DMNS CITY PARK   N/A     58  37  46 N10G16    29.96F
AURORA         MOCLDY    56  39  51 N15       29.94F
FRONT RANGE AP LGT RAIN  57  41  54 N14G21    29.95F
ERIE MUNI ARPT FAIR      56  37  48 CALM      30.00S
BOULDER MUN AP FAIR      55  37  50 NW3       29.96S
CENTENNIAL     CLOUDY    57  38  48 NE9       29.95F
BROOMFIELD     FAIR      57  36  44 N10       29.99R
FORT COLLINS   FAIR      56  38  50 N12       29.97R
LONGMONT       FAIR      58  38  47 N5        29.97S
$$

COZ041-046-047-076>085-087-088-230600-
...PIKES PEAK/PALMER DIVIDE AND SOUTHERN FOOTHILLS...

CITY           SKY/WX    TMP DP  RH WIND       PRES   REMARKS
COLO. SPRINGS  MOCLDY    68  38  33 E12       29.94S
A. F. ACADEMY  MOCLDY    64  38  39 NE10      29.95S
SCHRIEVER AFB  MOCLDY    60  41  49 N8        29.95R
CHEYENNE MTN   MOCLDY    68  34  28 SW20G35   29.90F
ELLICOTT         N/A    N/A N/A N/A NE8       29.94R
FALCON         CLOUDY    56  41  57 NW9       30.00R
FORT CARSON    MOCLDY    71  38  30 SW16      29.88F
LIMON            N/A    N/A N/A N/A MISG      29.93R
MONUMENT HILL  CLOUDY    50  41  71 NW3       30.04R
CANON CITY     PTCLDY    70  43  37 W13       29.89S
WALSENBURG     FAIR      63  43  48 SW8       29.93R
TRINIDAD       FAIR      67  40  37 SW9       29.92R
$$

COZ042>045-048>051-090-091-230600-
...NORTHEAST COLORADO...

CITY           SKY/WX    TMP DP  RH WIND       PRES   REMARKS
GREELEY ARPT   FAIR      56  38  50 N12       29.96R
AKRON          FAIR      58  45  62 N12       29.86R
BURLINGTON     FAIR      73  59  61 S18       29.85R
WRAY           FAIR      79  55  44 S20G29    29.79R
YUMA           FAIR      61  34  36 N10       29.83R
STERLING       FAIR      59  46  63 NE10G25   29.88R
HOLYOKE        FAIR      61  50  67 N10       29.86R
FORT MORGAN    MOCLDY    60  42  51 N12       29.94R
$$

COZ086-089-092>099-230600-
...SOUTHEAST COLORADO...

CITY           SKY/WX    TMP DP  RH WIND       PRES   REMARKS
PUEBLO         FAIR      70  39  32 SE6       29.83R
LA JUNTA       FAIR      77  60  55 S18G26    29.82R
LAMAR          FAIR      77  59  53 S26G33    29.79R
SPRINGFIELD      N/A     69  61  75 S17       29.89S
$$




USA.gov is the U.S. government's official web portal to all federal, state and local government web resources and services.